This is the latest recevied weather packets stored in our database for station/object DG4CB-13. If no packets are shown the sender has not sent any weather packets the latest 10 day(s).
| Time | Temp. | Humidity | Pressure | Rain* | Wind** | Luminosity | Snow |
|---|---|---|---|---|---|---|---|
| 1787996400 | 21.11° C | 59% | 1013.1 hPa | - | - | - | - |
| 1787995800 | 20.56° C | 61% | 1013.2 hPa | - | - | - | - |
| 1787995200 | 20.56° C | 61% | 1013.2 hPa | - | - | - | - |
| 1787994600 | 20.56° C | 62% | 1013.4 hPa | - | - | - | - |
| 1787994001 | 20° C | 66% | 1013.3 hPa | - | - | - | - |
| 1787993400 | 19.44° C | 67% | 1013.3 hPa | - | - | - | - |
| 1787992800 | 18.89° C | 68% | 1013.3 hPa | - | - | - | - |
| 1787992200 | 18.89° C | 70% | 1013.3 hPa | - | - | - | - |
| 1787991600 | 18.33° C | 70% | 1013.2 hPa | - | - | - | - |
| 1787991000 | 18.33° C | 71% | 1013.2 hPa | - | - | - | - |
| 1787990400 | 17.78° C | 71% | 1013.2 hPa | - | - | - | - |
| 1787989800 | 17.22° C | 76% | 1013.2 hPa | - | - | - | - |
| 1787989200 | 17.22° C | 77% | 1013.3 hPa | - | - | - | - |
| 1787988600 | 16.67° C | 78% | 1013.3 hPa | - | - | - | - |
| 1787988000 | 16.67° C | 79% | 1013.2 hPa | - | - | - | - |
| 1787987400 | 16.11° C | 79% | 1013.3 hPa | - | - | - | - |
| 1787986800 | 16.11° C | 80% | 1013.2 hPa | - | - | - | - |
| 1787986200 | 16.11° C | 81% | 1013.1 hPa | - | - | - | - |
| 1787985600 | 16.11° C | 83% | 1013 hPa | - | - | - | - |
| 1787985001 | 15.56° C | 84% | 1013 hPa | - | - | - | - |
| 1787984400 | 15.56° C | 85% | 1012.9 hPa | - | - | - | - |
| 1787983800 | 15° C | 85% | 1012.9 hPa | - | - | - | - |
| 1787983200 | 15° C | 85% | 1013 hPa | - | - | - | - |
| 1787982600 | 14.44° C | 86% | 1012.9 hPa | - | - | - | - |
| 1787982000 | 14.44° C | 86% | 1012.7 hPa | - | - | - | - |
* Rain since midnight (hover to see other rain measurements)
** Current wind speed in m/s (hover to see current wind gust speed)